QPF
0.08 0.10 0.13 0.15 0.20 0.17 0.17 0.10 0.05 0.02 0.01 0.00 0.00 0.00 0.00 0.00 0.00 0.00 0.00 0.00 0.00 0.00 0.00 0.00 0.00 0.00 0.00
0.17 0.21 0.21 0.18 0.12 0.06 0.03 0.01 0.00 0.00 0.00 0.00 0.00 0.00 0.00 0.00 0.00 0.00 0.00 0.00 0.00 0.00 0.00 0.00 0.00 0.00 0.00
0.14 0.12 0.08 0.03 0.01 0.00 0.00 0.00 0.00 0.00 0.00 0.00 0.00 0.00 0.00 0.00 0.00 0.00 0.00 0.00 0.00 0.00 0.00 0.00 0.00 0.00 0.00
0.03 0.01 0.00 0.00 0.00 0.00 0.00 0.00 0.00 0.00 0.00 0.00 0.00 0.00 0.00 0.00 0.00 0.00 0.00 0.00 0.00 0.00 0.00 0.00 0.00 0.00 0.00
0.01 0.00 0.00 0.00 0.00 0.00 0.00 0.00 0.00 0.00 0.00 0.00 0.00 0.00 0.00 0.00 0.00 0.00 0.00 0.00 0.00 0.00 0.00 0.00 0.00 0.00 0.00
0.00 0.00 0.00 0.00 0.00 0.00 0.00 0.00 0.00 0.00 0.00 0.00 0.00 0.00 0.00 0.00 0.00 0.00 0.00 0.00 0.00 0.00 0.00 0.00 0.00 0.00 0.00
0.00 0.00 0.00 0.00 0.00 0.00 0.00 0.00 0.00 0.00 0.00 0.00 0.00 0.00 0.00 0.00 0.00 0.00 0.00 0.00 0.00 0.00 0.00 0.00 0.00 0.00 0.00
0.00 0.00 0.00 0.00 0.00 0.00 0.00 0.00 0.00 0.00 0.00 0.00 0.00 0.00 0.00 0.00 0.00 0.00 0.00 0.00 0.00 0.00 0.00 0.00 0.00 0.00 0.00
0.00 0.00 0.00 0.00 0.00 0.00 0.00 0.00 0.00 0.00 0.00 0.00 0.00 0.00 0.00 0.00 0.00 0.00 0.00 0.00 0.00 0.00 0.00 0.00 0.00 0.00 0.00
0.00 0.00 0.00 0.00 0.00 0.00 0.00 0.00 0.00 0.00 0.00 0.00 0.00 0.00 0.00 0.00 0.00 0.00 0.00 0.00 0.00 0.00 0.00 0.00 0.00 0.00 0.00
0.00 0.00 0.00 0.00 0.00 0.00 0.00 0.00 0.00 0.00 0.00 0.00 0.00 0.00 0.00 0.00 0.00 0.00 0.00 0.00 0.00 0.00 0.00 0.00 0.00 0.00 0.00
0.00 0.00 0.00 0.00 0.00 0.00 0.00 0.00 0.00 0.00 0.00 0.00 0.01 0.00 0.00 0.00 0.00 0.00 0.00 0.00 0.00 0.00 0.00 0.00 0.00 0.00 0.00
0.00 0.00 0.00 0.00 0.00 0.00 0.00 0.00 0.00 0.00 0.00 0.00 0.00 0.00 0.01 0.01 0.00 0.00 0.00 0.00 0.00 0.00 0.00 0.00 0.00 0.00 0.00
0.00 0.00 0.00 0.00 0.00 0.00 0.00 0.00 0.00 0.00 0.00 0.00 0.00 0.00 0.01 0.00 0.00 0.00 0.00 0.00 0.00 0.00 0.00 0.00 0.00 0.00 0.00
0.00 0.00 0.00 0.00 0.00 0.00 0.00 0.00 0.00 0.00 0.00 0.00 0.00 0.00 0.00 0.00 0.00 0.00 0.00 0.00 0.00 0.00 0.00 0.00 0.00 0.00 0.00
0.00 0.00 0.00 0.00 0.00 0.00 0.00 0.00 0.00 0.00 0.00 0.00 0.00 0.00 0.00 0.00 0.00 0.00 0.00 0.00 0.00 0.00 0.00 0.00 0.00 0.00 0.00
0.00 0.00 0.00 0.00 0.00 0.00 0.00 0.00 0.00 0.00 0.00 0.00 0.00 0.00 0.01 0.00 0.00 0.00 0.00 0.00 0.00 0.00 0.00 0.00 0.00 0.00 0.00
MSLP
1020.36 1020.90 1021.41 1021.32 1021.60 1022.13 1022.02 1022.04 1022.54 1022.59 1022.73 1022.40 1022.59 1022.50 1022.63 1022.85 1022.73 1022.79 1022.94 1022.79 1022.64 1022.54 1022.21 1022.02 1021.95 1021.71 1021.74
1020.88 1021.33 1021.60 1021.73 1021.85 1021.69 1022.22 1022.24 1022.56 1022.54 1022.64 1022.48 1022.11 1022.33 1022.37 1022.38 1022.36 1022.54 1022.53 1022.49 1022.41 1022.33 1022.09 1021.96 1021.85 1021.70 1021.65
1020.73 1021.45 1021.50 1021.52 1021.94 1022.07 1022.17 1022.31 1022.34 1022.31 1022.13 1021.89 1021.96 1022.16 1022.33 1022.20 1022.22 1022.16 1022.06 1022.09 1022.07 1022.03 1021.77 1021.79 1021.71 1021.63 1021.50
1021.07 1021.43 1021.69 1022.00 1021.92 1022.08 1022.51 1022.65 1022.65 1022.30 1022.19 1022.20 1022.36 1022.20 1022.25 1022.32 1022.10 1022.16 1021.99 1021.90 1021.71 1021.64 1021.55 1021.46 1021.34 1021.24 1021.11
1021.81 1022.02 1022.14 1022.32 1022.38 1022.66 1022.84 1023.18 1023.03 1022.95 1022.92 1023.03 1022.70 1022.55 1022.44 1022.25 1022.18 1021.88 1021.68 1021.45 1021.25 1021.22 1021.04 1020.89 1020.74 1020.68 1020.55
1022.23 1022.55 1022.68 1022.68 1022.91 1023.12 1023.31 1023.68 1023.64 1023.21 1023.20 1022.83 1022.56 1022.41 1022.27 1022.13 1021.78 1021.47 1021.20 1021.14 1021.06 1020.84 1020.62 1020.48 1020.30 1020.15 1020.08
1022.56 1022.81 1022.88 1022.98 1023.23 1023.50 1023.65 1023.74 1023.80 1023.32 1023.24 1022.81 1022.46 1022.32 1021.96 1021.77 1021.45 1021.15 1021.00 1020.89 1020.71 1020.49 1020.35 1020.21 1020.07 1019.91 1019.72
1022.66 1022.75 1022.89 1022.97 1023.03 1023.22 1023.43 1023.65 1023.54 1023.25 1023.30 1023.30 1022.72 1022.40 1021.84 1021.52 1021.07 1020.88 1020.78 1020.72 1020.63 1020.48 1020.36 1020.08 1019.74 1019.57 1019.29
1022.37 1022.29 1022.19 1022.11 1022.45 1023.13 1023.57 1023.93 1023.96 1023.55 1023.43 1023.44 1023.14 1022.77 1022.08 1021.67 1021.39 1020.98 1020.84 1020.67 1020.51 1020.35 1020.14 1019.90 1019.61 1019.24 1018.94
1022.89 1022.79 1022.73 1022.64 1022.35 1022.72 1023.16 1024.08 1024.25 1023.76 1023.26 1023.42 1023.43 1023.26 1022.71 1021.83 1021.53 1020.98 1020.86 1020.56 1020.22 1019.96 1019.69 1019.46 1019.21 1019.02 1018.79
1023.11 1023.06 1023.02 1022.92 1022.87 1022.88 1023.05 1023.41 1023.56 1023.35 1022.81 1023.12 1023.30 1023.24 1023.18 1022.53 1021.45 1021.06 1020.83 1020.29 1019.92 1019.62 1019.35 1019.12 1018.88 1018.60 1018.37
1023.28 1023.31 1023.30 1023.11 1022.87 1022.73 1022.74 1022.76 1022.82 1022.90 1022.77 1022.87 1022.96 1022.90 1022.86 1022.48 1021.87 1020.65 1020.41 1019.78 1019.52 1019.33 1019.12 1018.70 1018.35 1018.00 1017.65
1023.59 1023.67 1023.55 1023.63 1023.30 1022.77 1022.64 1022.51 1022.41 1022.33 1022.24 1022.28 1022.34 1022.33 1022.28 1021.92 1021.39 1020.69 1020.00 1019.12 1018.81 1018.71 1018.41 1018.26 1017.94 1017.48 1017.26
1023.79 1023.52 1023.44 1023.17 1023.05 1022.84 1022.70 1022.52 1022.36 1022.09 1021.78 1021.71 1022.02 1022.08 1021.61 1021.18 1020.80 1019.84 1019.54 1019.33 1018.15 1018.06 1017.72 1017.20 1016.79 1016.53 1016.26
1023.32 1023.26 1023.18 1023.02 1022.88 1022.68 1022.48 1022.31 1022.14 1021.70 1021.33 1021.08 1021.08 1021.05 1020.69 1020.23 1019.66 1018.97 1018.40 1018.08 1017.72 1017.24 1017.07 1016.57 1015.91 1015.43 1015.18
1023.22 1023.08 1022.95 1022.84 1022.66 1022.46 1022.26 1022.14 1021.86 1021.46 1021.12 1020.72 1020.38 1020.30 1019.73 1018.68 1018.12 1017.69 1017.60 1017.29 1016.87 1016.57 1016.35 1015.95 1015.01 1014.36 1013.90
1022.94 1022.81 1022.64 1022.47 1022.25 1022.16 1021.99 1021.82 1021.54 1021.21 1020.83 1020.44 1020.33 1020.13 1019.58 1018.51 1017.31 1016.75 1016.76 1016.61 1016.29 1015.85 1015.39 1014.97 1014.24 1013.35 1013.04
Thickness
5465 5463 5461 5471 5466 5461 5466 5464 5459 5459 5457 5461 5458 5460 5458 5455 5457 5456 5454 5455 5455 5455 5457 5458 5457 5459 5459
5450 5450 5454 5456 5455 5456 5452 5451 5450 5449 5447 5448 5452 5449 5448 5446 5447 5444 5443 5442 5443 5443 5443 5444 5443 5444 5443
5449 5445 5447 5449 5448 5444 5444 5442 5442 5442 5442 5443 5441 5439 5436 5437 5435 5433 5435 5434 5433 5430 5430 5429 5428 5427 5427
5446 5443 5442 5440 5439 5437 5434 5432 5432 5433 5431 5430 5426 5427 5425 5423 5424 5421 5422 5421 5420 5418 5416 5415 5413 5412 5411
5437 5435 5434 5432 5430 5425 5424 5420 5420 5420 5418 5414 5415 5415 5414 5412 5410 5411 5410 5409 5407 5403 5402 5400 5399 5395 5393
5430 5426 5423 5420 5416 5414 5409 5405 5402 5408 5404 5404 5404 5403 5401 5399 5398 5397 5396 5394 5392 5390 5388 5385 5382 5379 5375
5424 5420 5417 5414 5409 5403 5401 5394 5391 5394 5390 5390 5389 5388 5387 5385 5383 5383 5382 5380 5379 5377 5374 5370 5366 5363 5361
5418 5415 5411 5407 5403 5398 5393 5388 5385 5383 5377 5369 5373 5373 5373 5372 5370 5368 5367 5365 5363 5361 5358 5357 5356 5353 5351
5411 5408 5405 5401 5395 5387 5379 5370 5366 5367 5362 5355 5354 5352 5354 5353 5352 5351 5350 5350 5349 5347 5346 5345 5344 5344 5342
5401 5398 5393 5389 5384 5378 5370 5355 5349 5346 5349 5338 5333 5331 5326 5333 5333 5334 5336 5337 5337 5337 5336 5334 5333 5333 5332
5390 5386 5381 5377 5372 5366 5359 5350 5337 5338 5336 5326 5319 5317 5313 5313 5316 5321 5323 5325 5327 5327 5326 5324 5323 5323 5324
5380 5374 5369 5365 5361 5355 5348 5341 5333 5324 5316 5308 5303 5303 5303 5304 5305 5310 5313 5316 5317 5317 5317 5315 5315 5315 5316
5366 5360 5357 5353 5348 5343 5336 5328 5319 5309 5301 5297 5295 5295 5295 5297 5300 5302 5307 5309 5310 5311 5312 5309 5309 5309 5309
5354 5350 5346 5342 5336 5330 5322 5314 5306 5299 5296 5294 5292 5290 5292 5293 5294 5299 5300 5299 5303 5304 5306 5305 5304 5304 5305
5348 5342 5337 5331 5325 5319 5312 5304 5297 5294 5293 5293 5292 5291 5291 5292 5293 5295 5298 5297 5298 5299 5298 5301 5300 5300 5302
5338 5332 5327 5321 5315 5310 5303 5296 5292 5289 5289 5288 5289 5286 5289 5294 5295 5296 5294 5295 5293 5292 5292 5295 5300 5297 5301
5328 5323 5318 5313 5308 5302 5296 5289 5288 5285 5284 5283 5280 5278 5283 5288 5291 5290 5290 5287 5287 5289 5289 5291 5296 5300 5299